Temp
52 55 56 54 54 55 49 46 45 49 54 55 56 58 60 61 62 64 64 66 67 66 68 69 69 68 70 72 72 72 72 72 72 73 73 73 72 72 72 71 72 72 71 73
52 59 60 54 55 56 54 55 55 55 52 59 60 60 60 61 60 60 62 63 66 67 67 68 68 69 70 71 70 72 72 72 72 71 72 72 72 72 72 72 71 71 72 72
42 51 56 51 52 53 53 53 52 47 53 60 56 57 57 57 58 58 59 61 63 65 65 66 66 67 66 67 69 69 69 69 70 71 71 71 72 71 71 71 70 71 69 67
44 44 37 46 57 58 54 55 54 55 57 59 56 56 57 57 57 57 58 58 59 60 62 65 66 66 67 67 67 68 68 69 69 69 69 69 70 70 70 70 68 68 67 65
39 37 43 51 55 54 54 52 57 55 59 59 57 57 56 58 58 56 57 57 57 59 60 61 62 65 67 67 67 67 67 68 68 69 68 68 68 68 69 69 69 68 66 64
38 36 36 47 56 59 58 47 61 59 56 55 58 50 53 57 58 57 57 57 57 58 59 59 60 63 66 66 67 67 67 68 68 69 68 68 68 68 67 68 67 65 62 62
37 37 44 53 57 57 47 49 61 61 58 54 52 53 55 57 56 57 56 57 58 58 57 57 60 63 64 64 63 65 67 68 68 68 68 68 67 66 65 63 61 60 58 58
37 36 38 54 55 49 50 55 59 57 54 55 54 55 55 55 55 55 55 56 56 57 56 57 59 60 59 59 60 63 63 63 65 67 67 66 65 62 61 61 58 57 58 57
42 41 49 52 52 55 55 55 56 54 54 57 54 54 54 53 54 54 54 54 56 56 57 57 57 58 57 58 59 58 59 58 57 57 58 61 63 61 59 58 56 55 56 58
45 47 49 53 56 57 58 57 55 54 57 57 54 54 53 53 53 53 54 54 56 55 56 55 57 58 57 58 58 57 56 55 55 56 55 55 54 55 56 59 59 58 56 55
44 48 50 54 55 57 56 56 54 54 53 53 52 53 54 53 52 51 52 54 56 55 54 54 56 56 58 59 59 57 55 55 54 54 52 50 48 49 50 46 49 54 55 57
44 50 51 52 55 57 55 55 54 53 51 52 51 50 50 50 51 52 51 54 54 53 55 55 54 53 54 57 59 58 58 56 54 52 52 51 51 48 48 47 47 44 45 50
52 52 53 55 57 59 56 55 55 54 52 50 51 51 50 49 51 53 53 53 51 51 54 54 54 52 54 54 55 56 57 56 55 55 55 54 54 54 52 49 46 43 43 43
54 55 53 55 54 57 58 57 56 54 53 52 52 51 51 50 51 50 50 51 52 52 52 52 53 53 54 55 55 55 54 52 55 55 55 55 55 54 54 55 54 52 47 47
55 56 56 57 57 57 57 56 54 52 52 51 52 51 51 50 50 51 52 52 53 53 53 53 54 54 55 55 54 53 54 54 54 54 54 54 54 55 55 55 54 53 53 49
54 57 56 57 56 56 56 55 53 52 52 52 52 51 52 52 52 52 52 52 52 52 53 53 54 55 55 54 53 54 54 56 54 52 52 53 54 54 54 53 53 53 53 53
53 52 53 53 55 55 55 57 57 56 55 54 53 53 52 52 51 51 52 52 52 52 54 53 54 55 55 55 54 54 54 53 54 52 52 52 52 52 52 53 53 53 53 51
58 59 58 59 57 56 56 57 56 56 56 57 55 54 53 51 52 52 53 53 52 52 53 55 55 56 56 56 55 54 54 53 53 53 52 51 52 52 52 53 53 54 54 51
59 58 58 59 59 59 59 57 57 58 56 56 55 54 55 54 54 54 54 53 53 53 56 56 58 59 56 57 57 55 55 55 54 53 53 52 52 52 53 53 53 53 54 54
58 60 59 58 58 58 57 57 57 56 56 56 55 54 54 55 55 54 54 54 54 55 57 57 58 57 57 57 61 55 55 55 54 54 53 54 54 53 53 49 54 55 55 55
58 58 57 56 56 57 57 57 56 55 55 55 55 55 55 55 55 55 53 53 55 54 55 57 57 56 55 56 58 56 56 55 54 54 54 54 54 54 54 54 54 54 55 54
56 56 56 56 55 56 56 55 56 55 54 54 55 55 53 52 52 52 53 54 54 52 54 54 55 57 57 58 55 55 55 54 54 54 54 54 53 53 55 55 55 54 54 53
55 55 55 54 55 55 54 54 54 54 53 53 53 52 53 54 53 52 52 53 53 52 54 54 56 55 54 52 52 52 53 53 53 53 52 53 54 54 54 54 54 54 54 53
54 53 54 55 54 53 52 52 54 54 55 55 55 55 53 51 51 52 54 52 51 52 53 54 54 53 51 51 50 50 50 50 51 51 51 47 54 54 55 52 52 54 54 52
54 54 53 53 52 54 54 54 53 53 53 54 53 53 55 57 56 55 53 54 51 52 53 53 54 52 53 52 51 50 50 50 50 51 51 51 52 52 52 52 53 52 52 52
52 54 55 55 58 57 56 52 56 56 54 53 52 53 55 57 55 55 52 52 53 52 54 54 54 53 53 54 53 52 51 51 51 51 50 51 51 51 50 50 50 50 50 50
54 50 53 52 53 55 55 55 56 55 54 57 56 55 56 53 52 52 51 52 52 54 54 53 54 53 54 54 53 54 53 52 47 52 52 51 51 51 51 50 50 49 49 49
MSLP
1013.05 1012.84 1012.17 1012.45 1013.00 1012.94 1013.04 1013.30 1013.59 1013.75 1013.90 1014.34 1014.40 1014.39 1014.02 1013.29 1012.86 1012.64 1012.45 1012.07 1011.91 1012.52 1012.99 1013.38 1013.66 1013.98 1014.24 1014.31 1014.46 1014.74 1015.12 1015.46 1015.65 1015.90 1016.35 1016.84 1017.34 1017.68 1017.84 1018.28 1018.59 1018.99 1019.28 1019.50
1013.59 1012.92 1012.30 1013.10 1013.44 1013.39 1013.32 1013.96 1014.26 1014.24 1014.57 1014.78 1014.80 1014.75 1014.59 1014.32 1014.16 1013.78 1013.46 1013.44 1013.16 1012.92 1012.97 1013.52 1013.82 1014.03 1014.14 1014.32 1014.41 1014.89 1015.29 1015.32 1015.39 1015.74 1015.93 1016.27 1016.66 1017.17 1017.60 1017.89 1018.21 1018.57 1018.88 1019.20
1014.79 1014.05 1013.17 1013.62 1013.74 1013.64 1014.03 1014.32 1014.32 1014.72 1014.74 1014.90 1015.30 1015.64 1015.70 1015.83 1015.87 1015.60 1015.33 1014.90 1014.46 1014.36 1013.96 1014.00 1013.70 1014.10 1014.32 1014.47 1014.46 1014.76 1015.24 1015.48 1015.49 1015.52 1015.90 1015.98 1016.11 1016.45 1017.09 1017.51 1017.85 1018.23 1018.51 1019.16
1015.94 1015.18 1015.01 1014.32 1013.99 1014.01 1014.13 1014.77 1014.52 1014.74 1014.93 1015.32 1015.83 1016.19 1016.44 1016.58 1016.64 1016.64 1016.45 1016.03 1015.68 1015.49 1014.92 1014.61 1014.44 1013.96 1014.10 1014.28 1014.35 1014.80 1015.36 1015.37 1015.58 1015.80 1015.64 1015.92 1016.08 1016.43 1016.83 1017.13 1017.84 1018.23 1018.53 1018.81
1017.17 1016.50 1015.96 1015.07 1014.51 1014.40 1014.20 1014.63 1014.62 1015.02 1015.46 1015.70 1016.16 1016.36 1016.72 1017.01 1017.10 1017.12 1017.00 1016.76 1016.51 1016.11 1015.97 1015.70 1015.04 1014.35 1014.02 1014.54 1014.26 1014.42 1014.95 1015.22 1015.31 1015.31 1015.30 1015.49 1016.13 1016.19 1016.63 1016.99 1017.53 1018.05 1018.34 1018.80
1018.11 1017.41 1016.30 1014.41 1014.21 1014.27 1014.30 1014.93 1014.41 1014.12 1015.70 1016.16 1016.51 1016.74 1016.78 1017.03 1017.13 1017.25 1017.37 1017.24 1016.91 1016.63 1016.39 1015.98 1015.31 1014.36 1013.94 1014.67 1014.36 1014.40 1014.45 1014.89 1015.18 1015.13 1015.08 1015.37 1015.95 1016.17 1016.46 1016.92 1017.40 1017.85 1018.55 1018.79
1018.41 1017.69 1016.08 1014.92 1014.71 1014.93 1015.21 1014.23 1013.69 1013.86 1015.32 1016.35 1016.66 1017.12 1017.32 1017.47 1017.59 1017.68 1017.60 1017.22 1016.93 1016.65 1016.41 1015.69 1015.20 1014.39 1014.78 1015.06 1015.05 1014.95 1014.45 1014.60 1014.86 1015.14 1015.00 1015.25 1015.90 1016.18 1016.42 1016.89 1017.60 1018.19 1018.68 1019.27
1018.65 1017.75 1016.36 1015.38 1015.44 1015.72 1015.40 1014.71 1013.90 1015.36 1016.28 1016.60 1016.98 1017.34 1017.65 1017.78 1017.84 1017.90 1017.98 1017.56 1017.19 1016.88 1016.69 1016.37 1016.05 1015.75 1015.67 1015.78 1015.80 1015.55 1015.14 1015.33 1015.66 1015.56 1015.28 1015.55 1016.12 1016.67 1017.09 1017.53 1018.08 1019.19 1019.80 1019.81
1017.85 1016.88 1015.61 1015.19 1015.16 1015.10 1015.14 1015.13 1015.48 1016.04 1016.59 1016.68 1017.27 1017.86 1018.09 1018.22 1018.51 1018.41 1018.48 1018.27 1018.10 1017.77 1017.55 1017.37 1016.85 1016.63 1016.51 1016.46 1016.24 1016.10 1016.03 1016.24 1016.40 1016.47 1016.32 1016.42 1016.66 1016.29 1017.49 1018.45 1018.84 1019.63 1020.13 1020.05
1017.21 1015.87 1015.50 1015.16 1015.00 1015.14 1015.23 1015.59 1015.99 1016.37 1016.88 1017.38 1017.66 1017.97 1018.44 1018.71 1018.80 1018.85 1018.87 1018.90 1018.71 1018.58 1018.48 1018.57 1018.17 1017.83 1017.73 1017.47 1017.17 1017.13 1017.22 1017.58 1017.70 1017.66 1017.62 1017.89 1017.83 1017.92 1018.44 1019.17 1019.68 1020.16 1020.36 1020.78
1016.56 1015.74 1015.56 1015.11 1014.90 1015.06 1015.37 1015.82 1016.29 1016.92 1017.30 1017.58 1017.82 1018.29 1018.59 1019.10 1019.40 1019.40 1019.43 1019.27 1019.19 1019.30 1019.42 1019.57 1019.18 1018.85 1018.61 1018.17 1018.08 1018.15 1018.24 1018.53 1018.57 1018.85 1018.88 1019.18 1019.75 1019.82 1019.95 1020.77 1020.88 1020.63 1020.94 1021.10
1015.28 1014.54 1014.43 1014.38 1014.53 1014.97 1015.30 1015.99 1016.64 1017.01 1017.85 1018.11 1018.33 1018.74 1018.99 1019.48 1019.71 1019.77 1019.74 1019.68 1019.83 1019.93 1019.68 1019.60 1019.32 1019.43 1019.45 1019.15 1018.66 1018.55 1018.74 1018.86 1019.16 1019.32 1019.70 1020.01 1020.30 1021.14 1021.39 1021.29 1021.59 1021.50 1021.35 1021.74
1014.04 1014.17 1014.31 1014.26 1014.76 1015.08 1015.52 1016.00 1016.68 1017.31 1017.77 1018.23 1018.77 1019.01 1019.35 1019.84 1020.06 1020.08 1020.08 1020.12 1020.25 1020.57 1020.36 1020.40 1020.47 1020.26 1020.16 1019.90 1019.54 1019.44 1019.69 1019.52 1019.64 1019.84 1020.17 1020.31 1020.79 1021.06 1021.46 1022.14 1022.21 1022.27 1022.20 1022.21
1013.75 1013.97 1014.30 1014.39 1014.68 1015.10 1015.43 1015.99 1016.92 1017.68 1018.05 1018.44 1018.88 1019.22 1019.70 1020.14 1020.36 1020.42 1020.48 1020.60 1020.68 1020.91 1020.80 1020.61 1020.52 1020.53 1020.51 1020.40 1020.23 1020.18 1020.11 1020.31 1020.29 1020.40 1020.57 1020.64 1020.95 1021.30 1021.36 1021.63 1022.11 1022.47 1022.37 1022.34
1013.23 1013.37 1013.23 1013.45 1014.48 1015.27 1015.69 1016.34 1017.15 1017.94 1018.25 1018.68 1019.05 1019.56 1020.09 1020.45 1020.63 1020.73 1020.87 1021.00 1021.04 1021.08 1020.96 1020.88 1020.93 1021.03 1020.96 1020.84 1020.74 1020.71 1020.71 1020.78 1020.71 1020.88 1021.09 1021.03 1021.00 1021.36 1021.39 1021.43 1021.76 1022.06 1022.27 1022.57
1012.71 1013.26 1013.38 1013.52 1014.35 1015.19 1015.82 1016.50 1017.01 1017.56 1018.07 1018.62 1019.15 1019.64 1019.92 1020.10 1020.29 1020.50 1020.76 1021.01 1021.10 1021.02 1020.98 1021.01 1021.06 1021.10 1021.17 1021.25 1021.23 1021.24 1021.19 1021.20 1021.26 1021.25 1021.19 1021.15 1021.34 1021.49 1021.67 1021.76 1022.01 1022.19 1022.14 1022.01
1012.67 1013.14 1013.28 1013.87 1014.34 1015.01 1015.33 1015.73 1016.22 1016.72 1017.51 1018.16 1018.58 1018.98 1019.50 1019.92 1020.26 1020.39 1020.40 1020.48 1020.69 1020.76 1020.84 1021.00 1021.03 1020.96 1021.01 1021.03 1021.14 1021.29 1021.44 1021.47 1021.50 1021.69 1021.78 1021.76 1021.74 1021.75 1021.68 1021.70 1021.78 1021.96 1021.97 1022.11
1011.33 1011.66 1012.16 1012.62 1013.64 1014.41 1015.10 1015.54 1016.15 1016.60 1016.83 1016.96 1017.76 1018.42 1018.94 1019.30 1019.40 1019.62 1019.84 1020.01 1020.29 1020.34 1020.18 1020.20 1020.35 1020.52 1020.69 1020.87 1021.10 1021.27 1021.50 1021.61 1021.74 1021.84 1022.01 1022.10 1022.04 1022.04 1022.03 1022.08 1022.04 1022.08 1022.12 1022.21
1011.20 1011.60 1012.07 1012.49 1012.97 1013.55 1014.11 1014.84 1015.34 1015.52 1016.12 1016.60 1017.22 1017.68 1018.04 1018.50 1018.68 1019.02 1019.37 1019.64 1019.79 1019.78 1019.06 1019.36 1019.61 1019.82 1020.04 1020.31 1020.68 1020.93 1021.17 1021.47 1021.55 1021.66 1021.72 1021.86 1021.99 1021.97 1021.90 1021.89 1021.98 1022.06 1022.07 1022.05
1011.04 1011.20 1011.60 1012.09 1012.61 1013.15 1013.71 1014.05 1014.59 1015.22 1015.65 1016.26 1016.79 1017.34 1017.66 1017.82 1018.09 1018.53 1018.79 1018.99 1018.90 1018.80 1018.68 1018.86 1019.08 1019.25 1019.36 1019.64 1020.06 1020.44 1020.75 1020.94 1021.07 1021.26 1021.52 1021.58 1021.62 1021.73 1021.76 1021.89 1021.77 1021.73 1021.69 1021.68
1010.58 1010.95 1011.45 1011.88 1012.24 1012.54 1012.91 1013.34 1014.02 1014.66 1015.19 1015.76 1016.21 1016.56 1016.89 1017.18 1017.62 1017.86 1018.56 1018.90 1018.52 1018.67 1018.77 1018.74 1018.76 1018.87 1019.02 1019.30 1019.60 1019.81 1020.15 1020.44 1020.70 1020.84 1021.03 1021.14 1021.24 1021.42 1021.56 1021.72 1021.66 1021.56 1021.44 1021.42
1010.46 1010.79 1011.18 1011.62 1012.02 1012.35 1012.76 1013.17 1013.60 1014.11 1014.82 1015.35 1015.72 1016.08 1016.57 1016.97 1017.42 1017.92 1018.16 1018.29 1018.42 1018.72 1018.77 1018.87 1018.88 1019.03 1019.26 1019.46 1019.68 1019.88 1020.12 1020.31 1020.46 1020.62 1020.72 1020.85 1020.96 1021.10 1021.12 1021.13 1021.18 1021.23 1021.16 1021.01
1010.50 1010.79 1011.12 1011.55 1011.90 1012.08 1012.64 1013.17 1013.56 1013.91 1014.43 1014.85 1015.27 1015.77 1016.16 1016.39 1016.85 1017.56 1017.94 1018.00 1018.37 1018.71 1018.92 1019.06 1019.19 1019.32 1019.38 1019.60 1019.82 1019.98 1020.08 1020.18 1020.28 1020.41 1020.49 1020.59 1020.66 1020.72 1020.77 1020.81 1020.83 1020.80 1020.68 1020.62
1010.44 1010.76 1010.92 1011.26 1011.80 1012.22 1012.88 1013.04 1013.32 1013.57 1013.84 1014.17 1014.48 1014.73 1015.32 1016.20 1016.86 1017.00 1017.09 1017.44 1018.00 1018.60 1018.90 1019.06 1019.24 1019.38 1019.57 1019.78 1019.93 1020.08 1020.16 1020.23 1020.30 1020.39 1020.44 1020.41 1020.47 1020.53 1020.53 1020.66 1020.60 1020.57 1020.52 1020.47
1009.97 1010.37 1010.86 1011.24 1011.64 1011.86 1012.00 1012.26 1012.90 1013.32 1013.63 1013.91 1014.09 1014.43 1014.81 1015.10 1015.50 1016.29 1016.95 1017.42 1017.83 1018.26 1018.86 1019.01 1019.20 1019.44 1019.68 1019.83 1019.95 1020.06 1020.16 1020.25 1020.32 1020.34 1020.36 1020.36 1020.41 1020.50 1020.57 1020.61 1020.66 1020.59 1020.46 1020.30
1009.87 1010.04 1010.21 1010.43 1010.54 1010.89 1011.30 1012.07 1012.40 1012.56 1013.05 1013.49 1013.90 1014.12 1014.54 1014.92 1015.33 1015.73 1016.44 1016.94 1017.62 1017.98 1018.45 1018.84 1019.12 1019.41 1019.67 1019.74 1019.91 1020.08 1020.17 1020.24 1020.25 1020.26 1020.24 1020.28 1020.38 1020.50 1020.56 1020.60 1020.63 1020.58 1020.46 1020.22
1009.78 1010.02 1010.25 1010.48 1010.52 1010.52 1010.70 1011.05 1011.54 1011.72 1012.12 1012.43 1013.04 1013.62 1013.94 1014.61 1015.25 1015.69 1016.27 1016.76 1017.18 1017.72 1018.11 1018.54 1018.80 1019.03 1019.31 1019.50 1019.72 1019.92 1020.02 1020.09 1020.10 1020.15 1020.19 1020.23 1020.30 1020.36 1020.40 1020.44 1020.49 1020.46 1020.30 1020.06
Wind_Speed
3 3 3 1 5 4 4 2 2 7 7 0 4 7 9 9 10 7 7 3 9 8 6 5 6 6 5 7 7 9 11 11 12 11 9 8 7 7 6 5 5 4 4 4
2 5 6 3 5 4 4 5 7 10 5 4 7 6 8 9 11 13 12 10 6 3 8 5 4 3 2 3 4 5 7 10 7 7 9 10 8 7 7 7 6 5 5 4
4 4 5 3 3 4 3 3 2 5 3 5 4 5 5 6 7 8 8 9 9 5 5 6 6 6 5 3 3 2 2 3 4 6 7 9 9 7 7 7 7 7 6 4
2 3 3 2 2 2 9 2 5 5 7 7 6 5 5 6 5 5 6 7 8 7 9 5 3 5 6 6 6 5 0 1 2 3 4 6 6 7 5 5 5 4 4 7
3 2 3 3 4 6 3 1 3 7 6 9 7 4 3 3 4 3 3 4 5 7 6 6 4 4 6 6 7 6 2 3 3 4 8 5 5 7 5 4 5 5 4 6
1 2 7 6 4 3 3 3 6 8 7 6 6 2 1 4 6 6 5 3 3 4 3 3 7 6 4 5 5 5 6 6 5 4 6 7 6 4 3 3 3 5 4 4
2 2 7 3 3 3 5 9 6 7 2 4 4 1 3 4 5 5 5 8 6 5 5 8 9 6 5 5 5 2 0 3 4 7 7 7 5 3 4 5 5 5 6 4
2 1 6 2 5 6 3 7 7 6 5 9 7 5 5 5 6 7 9 10 11 9 9 9 10 8 7 8 5 3 5 5 3 3 5 6 7 6 7 5 7 4 2 4
8 7 4 3 3 3 4 1 3 6 4 8 8 4 2 2 4 7 6 7 7 8 9 11 11 10 10 9 8 8 9 8 7 8 8 8 4 9 7 5 6 4 2 3
2 3 4 4 3 3 3 3 4 8 11 8 6 6 4 3 3 4 4 5 5 7 9 9 9 9 8 8 8 9 10 9 9 7 9 9 7 7 6 4 4 4 4 3
5 6 4 6 5 5 4 8 9 5 4 6 7 5 4 4 3 4 4 4 6 6 6 6 6 7 6 6 6 9 9 7 8 7 8 8 9 7 6 6 4 3 3 2
8 6 5 5 6 6 7 6 7 7 6 4 4 6 5 4 2 3 4 3 5 4 5 4 6 7 7 6 4 5 7 6 5 6 5 5 6 5 9 8 6 9 9 3
3 3 2 4 6 3 5 8 5 5 5 7 4 5 5 4 2 3 4 5 6 5 5 5 5 6 6 6 6 7 5 4 4 5 4 4 3 3 4 3 5 6 7 7
4 7 4 4 6 6 6 6 7 5 5 5 4 4 4 3 3 4 4 3 4 4 5 5 5 6 5 5 5 5 6 8 3 3 3 3 4 3 3 3 3 2 5 3
7 7 4 8 9 6 6 6 6 5 5 5 4 5 4 4 4 3 2 3 3 3 3 3 4 3 4 4 5 6 4 3 4 4 3 3 4 2 2 3 3 2 2 2
7 4 7 11 14 10 9 7 5 6 6 5 7 7 7 6 5 4 4 4 4 2 1 1 1 1 1 2 3 3 3 6 4 3 3 3 3 2 2 3 3 2 1 1
10 5 6 6 11 11 13 12 11 11 9 10 11 9 7 6 5 5 5 5 4 4 3 3 4 2 3 3 2 2 2 2 4 3 2 2 2 3 2 2 2 2 2 1
6 9 10 12 12 11 8 10 8 9 12 12 9 9 9 9 9 7 6 5 5 5 6 6 5 4 4 5 4 3 2 2 1 2 2 1 1 1 1 0 0 1 0 1
7 9 8 7 10 12 12 11 11 13 8 9 10 12 9 7 7 5 4 4 4 5 6 5 9 9 5 6 7 4 4 4 3 2 2 3 2 2 2 1 1 2 2 2
6 5 7 7 7 9 9 7 7 7 8 9 8 6 8 8 6 5 5 6 6 5 2 4 5 5 5 7 11 6 6 6 5 4 3 3 3 3 2 4 4 3 3 3
10 9 9 9 9 8 7 7 8 8 9 10 11 11 11 7 7 5 4 4 4 4 3 2 1 0 0 3 5 4 4 4 4 4 4 4 3 3 4 4 5 5 5 5
6 7 8 8 8 8 7 7 6 6 7 8 7 5 6 5 5 4 2 4 2 3 3 3 3 4 3 5 2 2 3 4 3 3 3 3 4 4 4 3 4 4 5 5
6 6 6 7 8 8 6 7 7 7 8 8 8 8 9 8 8 7 5 5 4 5 3 3 4 7 8 4 3 2 2 2 2 2 2 3 3 3 2 3 3 3 3 2
5 6 6 4 4 6 8 7 7 8 9 9 9 9 10 6 3 1 1 9 11 8 4 4 6 9 7 3 3 2 1 1 1 1 0 0 0 0 0 1 2 3 3 4
7 6 5 7 7 7 7 7 6 6 7 7 6 6 7 4 5 7 5 6 11 8 4 6 10 9 4 3 3 2 2 1 1 1 1 1 1 1 2 2 3 4 5 5
6 6 6 9 9 7 6 5 8 7 6 6 4 6 6 5 4 8 7 9 7 8 6 5 4 4 4 3 2 2 2 2 2 2 2 1 2 2 1 1 2 3 4 5
3 3 3 3 4 6 6 8 8 8 8 8 7 8 9 7 7 8 8 7 6 6 6 5 5 5 4 4 3 3 2 1 2 1 2 2 2 2 2 2 2 3 4 5
Wind_Direction
246 227 178 59 346 341 103 291 237 165 138 332 329 344 357 354 8 30 30 51 166 163 174 193 198 201 221 225 207 200 196 195 207 200 195 193 196 202 196 193 208 197 209 233
329 242 116 67 4 336 56 108 116 130 123 262 70 40 19 12 6 12 16 10 23 108 121 123 118 108 153 177 184 186 212 220 200 188 187 195 198 203 199 199 186 185 202 201
265 344 100 268 254 98 15 350 162 208 159 143 90 80 44 43 38 29 12 13 8 9 100 122 130 139 124 108 112 177 196 231 230 206 202 207 206 180 193 189 167 185 156 156
220 38 207 282 282 307 131 2 67 106 142 137 136 111 75 43 47 43 12 10 2 4 355 357 262 144 139 139 118 111 42 322 212 250 208 229 194 192 165 156 183 176 173 163
163 162 300 286 214 192 211 177 183 147 161 162 189 176 114 63 71 69 18 9 357 347 345 313 324 267 151 166 149 135 183 282 283 234 220 219 210 155 151 162 179 165 189 178
84 154 201 244 156 112 116 270 206 119 191 212 216 263 175 35 27 25 26 31 8 348 352 334 317 297 134 198 167 185 158 191 225 217 203 189 164 149 115 126 134 122 116 107
155 235 286 254 121 147 157 233 161 114 136 200 197 65 95 46 28 12 9 13 9 26 25 10 350 25 80 70 47 8 71 203 204 211 181 149 133 103 109 104 106 110 115 99
111 208 278 140 129 181 246 329 102 108 154 119 113 92 71 33 24 30 15 18 10 21 23 15 22 33 48 46 12 17 72 50 82 82 107 111 110 95 97 102 94 86 139 152
173 217 240 264 228 225 191 194 85 114 122 119 121 112 74 37 35 45 38 26 24 27 29 21 22 29 38 19 19 34 50 45 45 58 38 34 88 115 112 114 116 137 145 76
55 260 223 240 213 250 202 123 92 118 136 144 139 146 134 125 80 58 46 41 50 53 48 32 24 32 32 33 37 56 56 48 35 39 60 41 45 52 57 64 134 143 126 125
262 275 300 256 220 163 116 101 106 106 135 150 140 146 130 122 104 92 72 51 42 51 60 47 30 36 22 32 56 71 77 67 63 48 54 67 53 32 63 49 8 48 52 86
220 214 169 214 173 160 134 134 148 141 144 129 132 126 111 119 134 126 114 104 88 68 62 40 57 42 18 10 58 79 68 74 79 78 67 74 86 76 49 62 49 54 63 54
203 122 144 128 133 135 133 150 155 136 107 130 132 127 121 119 131 98 85 89 77 51 39 43 41 49 16 23 32 38 53 74 84 88 106 106 104 117 116 101 107 106 93 90
180 135 93 176 174 165 129 115 103 99 114 120 124 91 101 120 119 132 123 97 95 91 67 61 51 34 5 21 55 65 74 61 71 54 56 89 92 96 105 103 115 126 64 84
218 209 240 124 119 125 103 116 122 140 133 127 127 137 150 163 171 174 151 140 106 87 68 71 74 45 11 28 50 46 47 50 69 79 60 64 64 45 55 67 80 83 79 97
146 170 154 140 156 146 143 142 153 166 161 159 165 178 189 188 189 192 181 169 172 212 352 327 275 222 102 84 86 68 59 79 77 68 59 67 80 95 99 117 145 158 128 98
130 141 122 130 156 160 180 180 185 184 173 179 187 182 177 186 191 203 216 211 220 247 247 231 240 220 199 178 155 138 111 61 85 58 53 42 37 48 51 39 25 8 343 318
181 179 173 168 174 173 178 183 168 170 193 192 169 169 180 186 206 207 210 196 212 237 232 231 231 230 209 192 194 179 175 177 169 140 127 151 153 147 111 81 314 262 276 280
189 164 177 176 181 183 182 179 182 192 172 171 164 193 195 203 204 190 165 184 230 261 262 180 214 218 208 210 198 191 191 199 196 197 191 168 183 208 209 210 245 256 271 265
179 182 174 194 169 168 190 197 173 170 171 171 173 161 193 212 200 176 169 217 219 225 260 243 209 215 211 205 209 188 196 201 200 205 206 217 218 224 245 247 248 253 250 251
184 177 172 175 188 190 191 171 169 184 178 173 179 189 200 199 192 181 166 218 234 221 247 284 208 247 198 211 215 190 204 209 206 210 217 224 232 241 241 241 251 254 248 240
177 175 184 182 175 188 187 178 179 151 163 178 189 175 151 180 171 160 200 179 152 155 116 89 79 100 92 139 137 181 204 220 230 227 235 227 223 239 252 261 262 254 250 250
179 185 185 168 179 196 158 173 181 170 173 179 178 172 180 181 172 160 190 200 170 163 135 131 132 106 92 80 84 97 119 162 198 218 231 237 246 251 270 285 294 296 301 287
178 189 198 184 131 132 175 206 191 191 194 194 197 184 159 154 180 229 76 144 143 146 157 148 133 119 103 94 80 71 84 100 121 126 56 64 85 72 73 4 354 352 340 325
190 190 165 162 177 208 205 197 184 195 199 208 203 184 179 172 164 177 163 155 153 144 159 174 152 135 113 100 78 67 76 103 127 119 109 96 90 85 76 54 13 349 336 325
185 200 200 195 207 201 202 153 201 204 191 196 177 168 163 155 137 146 155 152 163 154 168 174 168 160 161 154 132 108 99 113 122 122 117 120 135 152 191 316 338 336 329 322
261 217 201 222 226 215 196 197 198 210 197 195 187 174 163 149 151 147 149 149 165 177 175 186 183 181 188 187 194 191 180 194 213 195 201 207 216 238 262 276 296 306 303 305